SCP
0 0 0 0 0 0 0 0 0 0 0 0 0 0 0 0 0 0 0 0 0 0
0 0 0 0 0 0 0 0 0 0 0 0 0 0 0 0 0 0 0 0 0 0
0 0 0 0 0 0 0 0 0 0 0 0 0 0 0 0 0 0 0 0 0 0
0 0 0 0 0 0 0 0 0 0 0 0 0 0 0 0 0 0 0 0 0 0
0 0 0 0 0 0 0 0 0 0 0 0 0 0 0 0 0 0 0 0 0 0
0 0 0 0 0 0 0 0 0 0 0 0 0 0 0 0 0 0 0 0 0 0
0 0 0 0 0 0 0 0 0 0 0 0 0 0 0 0 0 0 0 0 0 0
0 0 0 0 0 0 0 0 0 0 0 0 0 0 0 0 0 0 0 0 0 0
0 0 0 0 0 0 0 0 0 0 0 0 0 0 0 0 0 0 0 0 0 0
-0 -0 0 0 0 0 0 0 0 0 0 0 0 0 0 0 0 0 0 0 0 0
0 0 0 0 0 0 0 0 0 0 0 0 0 0 0 0 0 0 0 0 0 0
0 0 0 0 0 0 0 0 0 0 0 0 0 0 0 0 0 0 0 0 0 0
0 0 0 0 0 0 0 0 0 0 0 0 0 0 0 0 0 0 0 0 0 0
0 0 0 0 0 0 0 0 0 0 0 0 0 0 0 0 0 0 0 0 0 0
Wind_Speed_500mb
50 51 51 70 57 59 65 63 63 66 61 69 74 77 82 86 87 98 89 83 83 81
43 48 43 67 61 59 71 58 47 53 55 55 59 62 62 69 78 87 90 85 87 86
42 33 45 27 34 29 33 55 52 54 50 65 57 73 79 83 84 77 79 90 88 94
39 36 32 46 44 55 47 45 45 52 53 55 55 50 67 70 81 74 85 94 94 95
34 33 34 33 34 34 35 37 34 35 36 40 46 42 44 45 46 47 53 64 68 70
37 36 32 30 26 23 21 20 16 15 13 12 11 9 9 10 13 14 15 11 9 12
42 44 41 38 35 32 31 29 32 34 33 31 27 26 25 21 21 23 34 45 42 35
55 58 58 57 57 54 52 51 51 49 49 50 48 44 38 37 38 30 23 22 21 20
59 57 55 59 58 56 54 49 42 40 37 37 40 34 33 30 28 28 24 25 24 21
57 56 52 51 49 50 45 39 38 37 36 37 37 34 30 25 22 21 22 21 24 22
56 57 53 50 47 45 42 40 40 38 35 35 37 33 30 26 25 24 27 27 25 23
54 49 48 44 40 40 37 38 39 39 36 34 36 32 30 24 23 23 22 23 22 19
44 44 42 41 37 35 35 36 34 33 34 31 30 28 24 22 21 17 18 17 16 13
37 37 37 35 34 31 33 30 28 27 28 24 24 21 18 17 11 13 11 10 8 6
Wind_Direction_500mb
242 246 242 228 231 230 227 229 236 228 233 242 246 250 252 252 252 250 244 244 253 248
239 247 260 225 220 230 219 230 230 232 248 254 256 253 254 261 256 254 248 252 255 262
222 212 215 203 232 269 212 232 232 238 252 255 256 255 256 255 257 251 253 258 260 257
210 217 214 198 209 226 221 223 225 239 249 249 259 261 250 245 240 246 248 249 249 244
174 181 183 199 205 219 234 236 243 244 247 249 248 246 246 253 255 261 249 233 231 227
155 155 157 157 162 167 183 189 184 175 171 183 198 210 223 224 228 213 197 178 185 145
136 132 133 130 131 132 129 124 119 114 109 105 101 101 99 98 100 111 114 108 103 100
115 114 114 113 111 110 113 111 109 106 103 101 97 92 90 91 100 95 97 83 74 84
103 106 106 107 109 110 108 106 106 106 107 105 99 98 99 92 93 99 89 90 91 90
87 88 90 92 94 94 93 91 90 91 92 90 88 87 87 90 95 106 104 96 95 97
88 91 90 89 91 92 96 101 100 97 97 99 96 90 83 77 83 90 94 95 93 87
76 77 84 87 88 89 92 94 95 94 94 94 94 91 89 83 87 89 94 94 92 87
87 89 91 92 92 89 90 88 89 93 90 88 88 86 86 82 73 80 78 78 78 75
86 87 84 85 87 85 81 83 84 83 85 84 83 83 76 75 75 68 62 59 57 46
Wind_Speed_850mb
50 51 51 70 57 59 65 63 63 66 61 69 74 77 82 86 87 98 89 83 83 81
43 48 43 67 61 59 71 58 47 53 55 55 59 62 62 69 78 87 90 85 87 86
42 33 45 27 34 29 33 55 52 54 50 65 57 73 79 83 84 77 79 90 88 94
39 36 32 46 44 55 47 45 45 52 53 55 55 50 67 70 81 74 85 94 94 95
34 33 34 33 34 34 35 37 34 35 36 40 46 42 44 45 46 47 53 64 68 70
37 36 32 30 26 23 21 20 16 15 13 12 11 9 9 10 13 14 15 11 9 12
42 44 41 38 35 32 31 29 32 34 33 31 27 26 25 21 21 23 34 45 42 35
55 58 58 57 57 54 52 51 51 49 49 50 48 44 38 37 38 30 23 22 21 20
59 57 55 59 58 56 54 49 42 40 37 37 40 34 33 30 28 28 24 25 24 21
57 56 52 51 49 50 45 39 38 37 36 37 37 34 30 25 22 21 22 21 24 22
56 57 53 50 47 45 42 40 40 38 35 35 37 33 30 26 25 24 27 27 25 23
54 49 48 44 40 40 37 38 39 39 36 34 36 32 30 24 23 23 22 23 22 19
44 44 42 41 37 35 35 36 34 33 34 31 30 28 24 22 21 17 18 17 16 13
37 37 37 35 34 31 33 30 28 27 28 24 24 21 18 17 11 13 11 10 8 6
Wind_Direction_850mb
242 246 242 228 231 230 227 229 236 228 233 242 246 250 252 252 252 250 244 244 253 248
239 247 260 225 220 230 219 230 230 232 248 254 256 253 254 261 256 254 248 252 255 262
222 212 215 203 232 269 212 232 232 238 252 255 256 255 256 255 257 251 253 258 260 257
210 217 214 198 209 226 221 223 225 239 249 249 259 261 250 245 240 246 248 249 249 244
174 181 183 199 205 219 234 236 243 244 247 249 248 246 246 253 255 261 249 233 231 227
155 155 157 157 162 167 183 189 184 175 171 183 198 210 223 224 228 213 197 178 185 145
136 132 133 130 131 132 129 124 119 114 109 105 101 101 99 98 100 111 114 108 103 100
115 114 114 113 111 110 113 111 109 106 103 101 97 92 90 91 100 95 97 83 74 84
103 106 106 107 109 110 108 106 106 106 107 105 99 98 99 92 93 99 89 90 91 90
87 88 90 92 94 94 93 91 90 91 92 90 88 87 87 90 95 106 104 96 95 97
88 91 90 89 91 92 96 101 100 97 97 99 96 90 83 77 83 90 94 95 93 87
76 77 84 87 88 89 92 94 95 94 94 94 94 91 89 83 87 89 94 94 92 87
87 89 91 92 92 89 90 88 89 93 90 88 88 86 86 82 73 80 78 78 78 75
86 87 84 85 87 85 81 83 84 83 85 84 83 83 76 75 75 68 62 59 57 46